Accueil
METAR-TAF:

METAR-TAF

Aéroports :

Ballina, Australie

latitude: 28-50-00S, longitude: 153-33-42E, altitude: 2 m

Observation

Le bulletin a été fait il y a 50 minutes, à 13:00 UTC
Vent 7 kt de nord/nord-ouest
Température 16°C
Humidité 82%
Pression 1019 hPa
Visibilité 10 km ou plus
Nuages fragmentés à une hauteur de 10000 ft
Nuages fragmentés à une hauteur de 12000 ft

METAR: YBNA 211300Z AUTO 34007KT 9999 // BKN100 BKN120 16/13 Q1019

Heure: 23:50 (13:50 UTC)


TAF: absent

Observations et prévisions météorologiques de plus de 4000 aéroports (messages METAR et TAF).

Les stations disponibles sont représentées par des disques jaunes et rouges sur la carte.

Passer la souris dessus pour voir le nom de la station.

Cliquer dessus pour voir les observations et prévisions météorologiques.

Pour changer de carte: cliquez sur les boutons verts avec une croix noire pour zoomer, sur le bouton vert avec un tiret pour effectuer un zoom arrière, ou sur les flèches vertes pour les cartes adjacentes.


METAR-TAF: